Flag for China Weather past 2 weeks in Lanzhou, Gansu, China

Now
72 °F

Scattered clouds.


Feels Like: 77 °F
Forecast: 53 / 79 °F
Wind: 8 mph from Northeast

Location: Lanzhou / Zhongchuan

Current Time: Sep 5, 2015 at 8:21:54 PM

Latest Report: Sep 5, 2015 at 8:00 PM


Visibility: N/A

Pressure: 30.12 "Hg (25.19 "Hg at 1543m altitude)

Humidity: 33%

Dew point: 41 °F

Location of LanzhouLocation

Historic Weather in Lanzhou — Graph

°F

Lanzhou temperature yesterday

Maximum temperature yesterday: 77 °F (at 5:00 PM)
Minimum temperature yesterday: 52 °F (at 5:00 AM)
Average temperature yesterday: 64 °F

Past Weeks' High & Low Weather Summary

 TemperatureHumidityPressure
High82 °F (Aug 30, 2:00 PM)100% (Sep 4, 4:00 AM)30.21 "Hg (Sep 4, 4:00 AM)
Low45 °F (Aug 23, 5:00 AM)17% (Aug 24, 5:00 PM)29.92 "Hg (Aug 23, 5:00 PM)
Average65 °F50%30.06 "Hg
* Reported Aug 21 6:00 PM — Sep 5 6:00 PM, Lanzhou, Weather by CustomWeather, © 2015

Note: Actual official high and low records may vary slightly from our data, if they occured in-between our weather recording intervals... More about our weather records

Advertising

Lanzhou weather history for previous 24 hours

 ConditionsComfort  
Time TempWeatherWind HumidityBarometerVisibility
6:00 PM
Sat, Sep 5
75 °FScattered clouds.8 mph31%30.09 "HgN/A
5:00 PM77 °FScattered clouds.10 mph32%30.09 "HgN/A
4:00 PM81 °FScattered clouds.3 mph28%30.09 "HgN/A
3:00 PM77 °FScattered clouds.6 mph30%30.12 "HgN/A
2:00 PM75 °FPassing clouds.6 mph31%30.15 "HgN/A
1:00 PM75 °FSunny.6 mph31%30.18 "Hg10 mi
12:00 PM73 °FSunny.6 mph33%30.21 "Hg10 mi
11:00 AM70 °FPassing clouds.3 mph40%30.21 "HgN/A
10:00 AM68 °FPassing clouds.3 mph46%30.21 "HgN/A
9:00 AM64 °FSunny.No wind52%30.21 "Hg10 mi
8:00 AM61 °FSunny.1 mph63%30.21 "Hg10 mi
7:00 AM57 °FClear.1 mph72%30.18 "Hg10 mi
6:00 AM59 °FClear.3 mph68%30.18 "Hg10 mi
5:00 AM61 °FClear.3 mph63%30.18 "Hg10 mi
4:00 AM61 °FClear.1 mph63%30.18 "Hg10 mi
3:00 AM63 °FClear.1 mph56%30.18 "Hg10 mi
2:00 AM63 °FPassing clouds.1 mph52%30.21 "HgN/A
1:00 AM66 °FPassing clouds.3 mph43%30.21 "HgN/A
12:00 AM66 °FPassing clouds.6 mph43%30.21 "HgN/A
11:00 PM
Fri, Sep 4
64 °FPassing clouds.1 mph60%30.21 "HgN/A
10:00 PM66 °FPassing clouds.No wind52%30.18 "HgN/A
9:00 PM68 °FPassing clouds.3 mph46%30.18 "HgN/A
8:00 PM70 °FPartly sunny.8 mph40%30.12 "HgN/A
Weather by CustomWeather, © 2015

See weather overviewHow to use our weather pages